Location: *
(46.1833°N, 22.7667°E)
Time: 05:57:05
(UTC+00:00)

USA 234 - Pass Details

Date: 17 September 2019
Orbit: 1103 x 1105 km, 123.0° (Epoch: 17 October)

Event Time Altitude Azimuth Distance (km) Brightness Sun altitude
Exits shadow 19:10:21 21° 58° (ENE) 2,263 4.7 -25.7°
Maximum altitude 19:13:57 36° 8° (N) 1,680 4.4 -26.2°
Drops below altitude 10° 19:19:46 10° 305° (NW) 2,967 6.5 -27.0°
Sets 19:22:27 0° 297° (WNW) 3,926 7.4 -27.4°
